Herbert C Jackson — WL3972 — position and weather

sailwx.info

Track history (hours):
 
Tides and Currents Weather Stations Pressure Air Temp Water Temp Dewpoint Dewpoint Depression Visibility Wind Speed Wind Dir Waves Ship Positions

Herbert C Jackson

Owner: THE INTERLAKE STEAMSHIP COMPANY, Middleburg Heights, OH. More information available from US FCC via Universal Licensing System and Coast Guard Vessel Documentation Center.

Last reported at 2014-Oct-26 06:00 UTC. Time now 2014-Oct-26 07:03 UTC.
Position N 45°06' W 083°06'.

Length 239 m; draft 6.4 m.

Type: Cargo ship. MMSI: 366904930.

Wind from 300 at 33 knots

Barometer 1005.5 mb
Air temperature 10.3 ° C
Water temperature 9.4 ° C

Date/timePositionNaut miles runAvg speedWind from/ knotsBaromVisibWave heightAir tempDewpointWater temp
2014-Oct-26 06:00N 45°06' W 083°06'1514.7 300 / 331005.5 10.3 9.4
2014-Oct-26 05:00N 45°18' W 083°18'2412.1 300 / 311005.5 10.6 9.4
2014-Oct-26 03:00N 45°30' W 083°48'1312.7 290 / 301005.9 11.5 9.2
2014-Oct-26 02:00N 45°42' W 083°54'1212.0 280 / 261005.2 11.0 9.0
2014-Oct-26 01:00N 45°54' W 083°54'1312.7 280 / 261004.5 11.1 8.7
2014-Oct-26 00:00N 46°06' W 084°00'20 6.6 290 / 241004.9 11.3 8.4
2014-Oct-25 21:00N 46°24' W 084°12'7 7.3 290 / 201004.5 10.8 8.9
2014-Oct-25 20:00N 46°30' W 084°18'8 4.1 280 / 131004.5 10.8 8.9
2014-Oct-25 18:00N 46°30' W 084°30'1010.2 310 / 291004.1 10.8 9.0
2014-Oct-25 17:00N 46°36' W 084°42'3110.4 290 / 281004.410.8 2.511.1 8.9
2014-Oct-25 14:00N 46°48' W 085°24'1212.3 270 / 191003.7 9.6 6.9
2014-Oct-25 13:00N 46°48' W 085°42'1616.4 270 / 211004.1 10.5 7.6
2014-Oct-25 12:00N 46°48' W 086°06'1413.7 270 / 191003.7 10.8 7.6
2014-Oct-25 11:00N 46°42' W 086°24'1212.3 280 / 191004.4 10.6 7.5
2014-Oct-25 10:00N 46°42' W 086°42'1413.7 270 / 181004.7 11.7 8.2
2014-Oct-25 09:00N 46°36' W 087°00'1212.4 230 / 141004.7 11.3 7.5
2014-Oct-25 08:00N 46°36' W 087°18'4 2.1 260 / 171005.1 13.7 7.6
2014-Oct-25 06:00N 46°36' W 087°24'0 0.0 280 / 31004.7 14.0 8.4
2014-Oct-25 05:00N 46°36' W 087°24'0 0.0 190 / 21005.4 13.2 8.4
2014-Oct-25 04:00N 46°36' W 087°24'0 0.0 200 / 21005.8 13.1 8.5
2014-Oct-25 02:00N 46°36' W 087°24'1 1.7 140 / 81007.5 12.1 8.4
2014-Oct-25 01:14N 46°35' W 087°23'4 3.1
2014-Oct-25 00:00N 46°36' W 087°18'818.3 180 / 271007.5 11.5 7.5
2014-Oct-24 23:33N 46°36' W 087°06'4 7.8
2014-Oct-24 23:00N 46°36' W 087°00'1316.6 170 / 241008.8 11.0 8.7
2014-Oct-24 22:13N 46°40' W 086°42'1112.9
2014-Oct-24 21:20N 46°42' W 086°26'515.4
2014-Oct-24 21:00N 46°42' W 086°18'1112.0 180 / 221009.8 11.5 7.8
2014-Oct-24 20:07N 46°45' W 086°03'2512.9
2014-Oct-24 18:10N 46°48' W 085°27'210.7
2014-Oct-24 18:00N 46°48' W 085°24'613.9 180 / 141012.5 9.0 8.0
2014-Oct-24 17:33N 46°49' W 085°15'611.3
2014-Oct-24 17:00N 46°48' W 085°06'614.6 190 / 131013.5 5.4 0.5 9.2 7.8
2014-Oct-24 16:33N 46°47' W 084°57'1612.9
2014-Oct-24 15:17N 46°34' W 084°43'413.2
2014-Oct-24 15:00N 46°30' W 084°42'1212.4 140 / 101015.2 7.5 9.1
2014-Oct-24 14:00N 46°30' W 084°24'10 3.4 100 / 51015.6 6.8 8.9
2014-Oct-24 11:00N 46°24' W 084°12'7 7.3 080 / 51015.4 6.2 8.8
2014-Oct-24 10:00N 46°18' W 084°06'5 9.2 080 / 21015.7 6.1 8.7
2014-Oct-24 09:24N 46°13' W 084°07'512.5
2014-Oct-24 09:00N 46°12' W 084°00'817.3 120 / 31016.0 8.1 8.4
2014-Oct-24 08:33N 46°04' W 084°01'611.4
2014-Oct-24 08:00N 46°00' W 083°54'511.5 270 / 31016.0 8.0 8.7
2014-Oct-24 07:33N 45°55' W 083°53'813.8
2014-Oct-24 07:00N 45°48' W 083°48'1514.6 220 / 111016.4 9.1 8.7
2014-Oct-24 06:00N 45°36' W 083°36'1010.3 210 / 81016.7 9.1 9.1
2014-Oct-24 05:00N 45°30' W 083°24'1312.7 240 / 61017.1 8.1 9.2
2014-Oct-24 04:00N 45°18' W 083°18'1514.7 240 / 101017.4 8.4 9.6
2014-Oct-24 03:00N 45°06' W 083°06'1312.7 240 / 131018.1 8.6 9.5
2014-Oct-24 02:00N 44°54' W 083°00'3812.7 240 / 121018.4 8.6 9.3
2014-Oct-23 23:00N 44°18' W 082°42'1312.7 240 / 201019.1 7.5 9.6
2014-Oct-23 22:00N 44°06' W 082°36'1312.8 290 / 141019.4 7.5 9.8
2014-Oct-23 21:00N 43°54' W 082°30'1312.8 360 / 101019.4 8.1 10.0
2014-Oct-23 20:00N 43°42' W 082°24'1312.8 1020.1 8.7 10.1
2014-Oct-23 19:00N 43°30' W 082°18'1212.0 350 / 91020.4 9.4 10.9
2014-Oct-23 18:00N 43°18' W 082°18'1312.8 330 / 121021.1 9.3 10.8
2014-Oct-23 17:00N 43°06' W 082°24'19 9.3 350 / 91022.1 8.8 10.0
2014-Oct-23 15:00N 42°48' W 082°30'1212.0 320 / 111023.2 8.6 10.6
2014-Oct-23 14:00N 42°36' W 082°30'1110.7 340 / 91023.5 7.2 10.7
2014-Oct-23 13:00N 42°30' W 082°42'1110.7 350 / 151022.6 6.5 10.6
2014-Oct-23 12:00N 42°24' W 082°54'1110.7 330 / 161023.0 4.7 10.4
2014-Oct-23 11:00N 42°18' W 083°06'0 0.0 350 / 61023.6 4.2 10.5
2014-Oct-23 10:00N 42°18' W 083°06'183 7.1 340 / 21024.0 5.0 15.7
2014-Oct-22 08:14N 45°21' W 083°16'912.4
2014-Oct-22 07:28N 45°29' W 083°24'5011.6
2014-Oct-22 03:08N 46°10' W 084°05'46 6.5
2014-Oct-21 20:00N 46°42' W 084°54'1010.2 350 / 91024.4 5.6 8.6
2014-Oct-21 19:00N 46°48' W 085°06'2512.3 020 / 141024.4 4.6 7.9
2014-Oct-21 17:00N 46°48' W 085°42'2512.3 030 / 171024.4 3.1 6.6
2014-Oct-21 15:00N 46°48' W 086°18'1413.7 030 / 181024.4 3.6 7.6
2014-Oct-21 14:00N 46°42' W 086°36'1212.3 030 / 241023.4 4.8 7.9
2014-Oct-21 13:00N 46°42' W 086°54'1010.2 020 / 201022.7 5.2 7.5
2014-Oct-21 12:00N 46°36' W 087°06'12 4.1 020 / 201022.4 5.3 7.7
2014-Oct-21 09:00N 46°36' W 087°24'0 0.0 290 / 21021.0 6.6 8.1
2014-Oct-21 08:00N 46°36' W 087°24'0 0.0 010 / 21020.0 6.0 8.2
2014-Oct-21 07:00N 46°36' W 087°24'0 0.0 350 / 21019.6 5.6 8.2
2014-Oct-21 06:00N 46°36' W 087°24'0 0.0 070 / 21019.0 5.6 8.2
2014-Oct-21 05:00N 46°36' W 087°24'0 0.0 1018.6 5.9 8.1
2014-Oct-21 03:00N 46°36' W 087°24'2110.3 060 / 41017.6 6.4 8.0
2014-Oct-21 01:00N 46°36' W 086°54'1413.7 340 / 231014.9 6.3 7.2
2014-Oct-21 00:00N 46°42' W 086°36'1212.3 340 / 261013.9 6.5 8.0
2014-Oct-20 23:00N 46°42' W 086°18'8 8.2 330 / 251012.2 6.5 7.9
2014-Oct-20 22:00N 46°42' W 086°06'2512.7 330 / 241010.5 6.5 7.8
2014-Oct-20 20:00N 46°48' W 085°30'2512.7 320 / 141009.5 7.4 7.6
2014-Oct-20 18:00N 46°42' W 084°54'1010.2 300 / 201007.5 8.1 8.8
2014-Oct-20 17:00N 46°36' W 084°42'18 5.9 300 / 221006.8 8.7 9.4
2014-Oct-20 14:00N 46°30' W 084°18'20 9.9 290 / 41007.2 8.0 9.0
2014-Oct-20 12:00N 46°12' W 084°06'17 9.2 220 / 41006.6 9.1 8.8
2014-Oct-20 10:07N 45°57' W 083°53'325.0
2014-Oct-20 10:00N 45°54' W 083°54'1514.6 220 / 121006.6 9.5 9.0
2014-Oct-20 09:00N 45°42' W 083°42'4912.3 210 / 151006.9 9.5 9.3
2014-Oct-20 05:00N 45°00' W 083°06'2512.7 220 / 191010.3 9.2 9.7
2014-Oct-20 03:00N 44°36' W 082°54'1312.7 220 / 231012.3 10.3 9.1
2014-Oct-20 02:00N 44°24' W 082°48'1312.7 200 / 171013.7 9.6 9.9
2014-Oct-20 01:00N 44°12' W 082°42'1312.8 190 / 181014.0 9.4 10.4
2014-Oct-20 00:00N 44°00' W 082°36'2412.2 200 / 151015.0 9.3 10.4
2014-Oct-19 22:00N 43°36' W 082°30'1212.0 240 / 121016.7 9.2 10.6
2014-Oct-19 21:00N 43°24' W 082°30'1918.5 230 / 141017.4 9.5 10.7
2014-Oct-19 20:00N 43°06' W 082°24'6 6.0 250 / 91018.1 9.5 11.8
2014-Oct-19 19:00N 43°00' W 082°24'19 9.3 240 / 71019.1 9.2 11.7
2014-Oct-19 17:00N 42°42' W 082°30'7 7.4 260 / 91020.8 7.7 11.7
2014-Oct-19 16:00N 42°36' W 082°36'1110.7 270 / 111021.6 6.1 11.7
2014-Oct-19 15:00N 42°30' W 082°48'1312.8 320 / 101021.6 4.9 12.1
2014-Oct-19 14:00N 42°18' W 082°54'9 3.0 310 / 61021.9 3.8 11.7
2014-Oct-19 11:00N 42°18' W 083°06'18 9.0 300 / 51021.6 1.6 12.2
2014-Oct-19 09:00N 42°00' W 083°06'11 5.4 310 / 161020.1 3.9 12.3
2014-Oct-19 07:00N 41°54' W 083°18'0 0.0 310 / 141020.1 4.7 12.9
2014-Oct-19 05:00N 41°54' W 083°18'0 0.0 290 / 71019.8 6.9 12.5
2014-Oct-19 02:00N 41°54' W 083°18'0 0.0 310 / 81019.1 8.2 13.3
2014-Oct-19 01:00N 41°54' W 083°18'4 4.5 300 / 81018.8 8.7 12.9
2014-Oct-19 00:00N 41°54' W 083°12'0 0.0 320 / 171017.1 9.1 12.3
2014-Oct-18 23:00N 41°54' W 083°12'0 0.0 340 / 161016.4 9.0 12.7
2014-Oct-18 22:00N 41°54' W 083°12'0 0.0 310 / 181016.1 9.0 12.7
2014-Oct-18 19:00N 41°54' W 083°12'4 4.5 310 / 191014.4 8.6 12.7
2014-Oct-18 18:00N 41°54' W 083°06'4 4.5 330 / 181013.4 9.0 12.8
2014-Oct-18 17:00N 41°54' W 083°12'7 7.5 320 / 211012.7 8.9 12.7
2014-Oct-18 16:00N 42°00' W 083°06'18 9.0 330 / 121012.7 9.0 12.8
2014-Oct-18 14:00N 42°18' W 083°06'2110.7 300 / 91010.8 7.7 12.9
2014-Oct-18 12:00N 42°30' W 082°42'1110.7 310 / 221008.1 7.8 12.5
2014-Oct-18 11:00N 42°36' W 082°30'19 9.3 300 / 121007.2 6.9 12.8
2014-Oct-18 09:00N 42°54' W 082°24'1212.0 280 / 101004.9 6.8 12.5
2014-Oct-18 08:00N 43°06' W 082°24'1212.0 290 / 221003.5 8.4 12.4
2014-Oct-18 07:00N 43°18' W 082°24'1212.0 300 / 251003.2 8.4 12.3
2014-Oct-18 06:00N 43°30' W 082°24'1312.8 290 / 231002.5 8.6 11.8
2014-Oct-18 05:00N 43°42' W 082°30'1212.0 300 / 241001.8 9.0 11.8
2014-Oct-18 04:00N 43°54' W 082°30'8213.7 300 / 261000.8 9.7 11.5
2014-Oct-17 22:00N 45°12' W 083°06'1414.0 300 / 15997.1 10.8 10.4
2014-Oct-17 21:00N 45°18' W 083°24'0 0.0 300 / 14996.7 10.9 10.5
2014-Oct-17 20:00N 45°18' W 083°24'0 0.0 320 / 11995.7 10.8 10.9
2014-Oct-17 16:00N 45°18' W 083°24'0 0.0 220 / 2996.7 13.1 10.9
2014-Oct-17 15:00N 45°18' W 083°24'0 0.0 210 / 4997.1 12.2 10.9
2014-Oct-17 13:00N 45°18' W 083°24'0 0.0 230 / 7997.4 11.2 10.8
2014-Oct-17 11:00N 45°18' W 083°24'10 5.2 210 / 8998.4 10.4 10.6
2014-Oct-17 09:00N 45°12' W 083°12'7 7.3 250 / 22998.8 11.1 10.5
2014-Oct-17 08:00N 45°06' W 083°06'18 9.2 240 / 12999.4 11.3 10.6
2014-Oct-17 06:00N 44°48' W 083°00'7 7.4 240 / 91001.5 11.1 10.2
2014-Oct-17 05:00N 44°42' W 082°54'1312.7 260 / 71002.2 11.2 10.2
2014-Oct-17 04:00N 44°30' W 082°48'19 9.3 220 / 101002.5 11.6 10.4
2014-Oct-17 02:00N 44°12' W 082°42'7 7.4 200 / 121003.9 11.9 11.1
2014-Oct-17 01:00N 44°06' W 082°36'1212.0 220 / 131004.2 11.9 11.4
2014-Oct-17 00:00N 43°54' W 082°36'13 6.4 240 / 31004.5 11.7 11.9
2014-Oct-16 22:00N 43°42' W 082°30'2010.0 350 / 131004.9 12.3 12.5
2014-Oct-16 20:00N 43°24' W 082°18'2412.2 350 / 161004.5 12.2 12.6
2014-Oct-16 18:00N 43°00' W 082°24'50 9.9 010 / 71005.5 14.3 13.2
2014-Oct-16 13:00N 42°18' W 083°00'4 4.4 360 / 101006.7 12.9 13.1
2014-Oct-16 12:00N 42°18' W 083°06'4 4.4 310 / 21007.4 13.1 15.4
2014-Oct-16 11:00N 42°18' W 083°12'0 0.0 310 / 81007.4 13.4 17.0
2014-Oct-16 08:00N 42°18' W 083°12'0 0.0 350 / 21007.0 14.5 16.5
2014-Oct-16 07:00N 42°18' W 083°12'0 0.0 290 / 31007.7 14.3 15.9
2014-Oct-16 06:00N 42°18' W 083°12'   100 / 21008.1 14.8 17.3
Track history (hours):
 
Tides and Currents Weather Stations Pressure Air Temp Water Temp Dewpoint Dewpoint Depression Visibility Wind Speed Wind Dir Waves Ship Positions

Herbert C Jackson

Owner: THE INTERLAKE STEAMSHIP COMPANY, Middleburg Heights, OH. More information available from US FCC via Universal Licensing System and Coast Guard Vessel Documentation Center.

Last reported at 2014-Oct-26 06:00 UTC. Time now 2014-Oct-26 07:03 UTC.
Position N 45°06' W 083°06'.

Length 239 m; draft 6.4 m.

Type: Cargo ship. MMSI: 366904930.

Wind from 300 at 33 knots

Barometer 1005.5 mb
Air temperature 10.3 ° C
Water temperature 9.4 ° C

Date/timePositionNaut miles runAvg speedWind from/ knotsBaromVisibWave heightAir tempDewpointWater temp
2014-Oct-26 06:00N 45°06' W 083°06'1514.7 300 / 331005.5 10.3 9.4
2014-Oct-26 05:00N 45°18' W 083°18'2412.1 300 / 311005.5 10.6 9.4
2014-Oct-26 03:00N 45°30' W 083°48'1312.7 290 / 301005.9 11.5 9.2
2014-Oct-26 02:00N 45°42' W 083°54'1212.0 280 / 261005.2 11.0 9.0
2014-Oct-26 01:00N 45°54' W 083°54'1312.7 280 / 261004.5 11.1 8.7
2014-Oct-26 00:00N 46°06' W 084°00'20 6.6 290 / 241004.9 11.3 8.4
2014-Oct-25 21:00N 46°24' W 084°12'7 7.3 290 / 201004.5 10.8 8.9
2014-Oct-25 20:00N 46°30' W 084°18'8 4.1 280 / 131004.5 10.8 8.9
2014-Oct-25 18:00N 46°30' W 084°30'1010.2 310 / 291004.1 10.8 9.0
2014-Oct-25 17:00N 46°36' W 084°42'3110.4 290 / 281004.410.8 2.511.1 8.9
2014-Oct-25 14:00N 46°48' W 085°24'1212.3 270 / 191003.7 9.6 6.9
2014-Oct-25 13:00N 46°48' W 085°42'1616.4 270 / 211004.1 10.5 7.6
2014-Oct-25 12:00N 46°48' W 086°06'1413.7 270 / 191003.7 10.8 7.6
2014-Oct-25 11:00N 46°42' W 086°24'1212.3 280 / 191004.4 10.6 7.5
2014-Oct-25 10:00N 46°42' W 086°42'1413.7 270 / 181004.7 11.7 8.2
2014-Oct-25 09:00N 46°36' W 087°00'1212.4 230 / 141004.7 11.3 7.5
2014-Oct-25 08:00N 46°36' W 087°18'4 2.1 260 / 171005.1 13.7 7.6
2014-Oct-25 06:00N 46°36' W 087°24'0 0.0 280 / 31004.7 14.0 8.4
2014-Oct-25 05:00N 46°36' W 087°24'0 0.0 190 / 21005.4 13.2 8.4
2014-Oct-25 04:00N 46°36' W 087°24'0 0.0 200 / 21005.8 13.1 8.5
2014-Oct-25 02:00N 46°36' W 087°24'1 1.7 140 / 81007.5 12.1 8.4
2014-Oct-25 01:14N 46°35' W 087°23'4 3.1
2014-Oct-25 00:00N 46°36' W 087°18'818.3 180 / 271007.5 11.5 7.5
2014-Oct-24 23:33N 46°36' W 087°06'4 7.8
2014-Oct-24 23:00N 46°36' W 087°00'1316.6 170 / 241008.8 11.0 8.7
2014-Oct-24 22:13N 46°40' W 086°42'1112.9
2014-Oct-24 21:20N 46°42' W 086°26'515.4
2014-Oct-24 21:00N 46°42' W 086°18'1112.0 180 / 221009.8 11.5 7.8
2014-Oct-24 20:07N 46°45' W 086°03'2512.9
2014-Oct-24 18:10N 46°48' W 085°27'210.7
2014-Oct-24 18:00N 46°48' W 085°24'613.9 180 / 141012.5 9.0 8.0
2014-Oct-24 17:33N 46°49' W 085°15'611.3
2014-Oct-24 17:00N 46°48' W 085°06'614.6 190 / 131013.5 5.4 0.5 9.2 7.8
2014-Oct-24 16:33N 46°47' W 084°57'1612.9
2014-Oct-24 15:17N 46°34' W 084°43'413.2
2014-Oct-24 15:00N 46°30' W 084°42'1212.4 140 / 101015.2 7.5 9.1
2014-Oct-24 14:00N 46°30' W 084°24'10 3.4 100 / 51015.6 6.8 8.9
2014-Oct-24 11:00N 46°24' W 084°12'7 7.3 080 / 51015.4 6.2 8.8
2014-Oct-24 10:00N 46°18' W 084°06'5 9.2 080 / 21015.7 6.1 8.7
2014-Oct-24 09:24N 46°13' W 084°07'512.5
2014-Oct-24 09:00N 46°12' W 084°00'817.3 120 / 31016.0 8.1 8.4
2014-Oct-24 08:33N 46°04' W 084°01'611.4
2014-Oct-24 08:00N 46°00' W 083°54'511.5 270 / 31016.0 8.0 8.7
2014-Oct-24 07:33N 45°55' W 083°53'813.8
2014-Oct-24 07:00N 45°48' W 083°48'1514.6 220 / 111016.4 9.1 8.7
2014-Oct-24 06:00N 45°36' W 083°36'1010.3 210 / 81016.7 9.1 9.1
2014-Oct-24 05:00N 45°30' W 083°24'1312.7 240 / 61017.1 8.1 9.2
2014-Oct-24 04:00N 45°18' W 083°18'1514.7 240 / 101017.4 8.4 9.6
2014-Oct-24 03:00N 45°06' W 083°06'1312.7 240 / 131018.1 8.6 9.5
2014-Oct-24 02:00N 44°54' W 083°00'3812.7 240 / 121018.4 8.6 9.3
2014-Oct-23 23:00N 44°18' W 082°42'1312.7 240 / 201019.1 7.5 9.6
2014-Oct-23 22:00N 44°06' W 082°36'1312.8 290 / 141019.4 7.5 9.8
2014-Oct-23 21:00N 43°54' W 082°30'1312.8 360 / 101019.4 8.1 10.0
2014-Oct-23 20:00N 43°42' W 082°24'1312.8 1020.1 8.7 10.1
2014-Oct-23 19:00N 43°30' W 082°18'1212.0 350 / 91020.4 9.4 10.9
2014-Oct-23 18:00N 43°18' W 082°18'1312.8 330 / 121021.1 9.3 10.8
2014-Oct-23 17:00N 43°06' W 082°24'19 9.3 350 / 91022.1 8.8 10.0
2014-Oct-23 15:00N 42°48' W 082°30'1212.0 320 / 111023.2 8.6 10.6
2014-Oct-23 14:00N 42°36' W 082°30'1110.7 340 / 91023.5 7.2 10.7
2014-Oct-23 13:00N 42°30' W 082°42'1110.7 350 / 151022.6 6.5 10.6
2014-Oct-23 12:00N 42°24' W 082°54'1110.7 330 / 161023.0 4.7 10.4
2014-Oct-23 11:00N 42°18' W 083°06'0 0.0 350 / 61023.6 4.2 10.5
2014-Oct-23 10:00N 42°18' W 083°06'183 7.1 340 / 21024.0 5.0 15.7
2014-Oct-22 08:14N 45°21' W 083°16'912.4
2014-Oct-22 07:28N 45°29' W 083°24'5011.6
2014-Oct-22 03:08N 46°10' W 084°05'46 6.5
2014-Oct-21 20:00N 46°42' W 084°54'1010.2 350 / 91024.4 5.6 8.6
2014-Oct-21 19:00N 46°48' W 085°06'2512.3 020 / 141024.4 4.6 7.9
2014-Oct-21 17:00N 46°48' W 085°42'2512.3 030 / 171024.4 3.1 6.6
2014-Oct-21 15:00N 46°48' W 086°18'1413.7 030 / 181024.4 3.6 7.6
2014-Oct-21 14:00N 46°42' W 086°36'1212.3 030 / 241023.4 4.8 7.9
2014-Oct-21 13:00N 46°42' W 086°54'1010.2 020 / 201022.7 5.2 7.5
2014-Oct-21 12:00N 46°36' W 087°06'12 4.1 020 / 201022.4 5.3 7.7
2014-Oct-21 09:00N 46°36' W 087°24'0 0.0 290 / 21021.0 6.6 8.1
2014-Oct-21 08:00N 46°36' W 087°24'0 0.0 010 / 21020.0 6.0 8.2
2014-Oct-21 07:00N 46°36' W 087°24'0 0.0 350 / 21019.6 5.6 8.2
2014-Oct-21 06:00N 46°36' W 087°24'0 0.0 070 / 21019.0 5.6 8.2
2014-Oct-21 05:00N 46°36' W 087°24'0 0.0 1018.6 5.9 8.1
2014-Oct-21 03:00N 46°36' W 087°24'2110.3 060 / 41017.6 6.4 8.0
2014-Oct-21 01:00N 46°36' W 086°54'1413.7 340 / 231014.9 6.3 7.2
2014-Oct-21 00:00N 46°42' W 086°36'1212.3 340 / 261013.9 6.5 8.0
2014-Oct-20 23:00N 46°42' W 086°18'8 8.2 330 / 251012.2 6.5 7.9
2014-Oct-20 22:00N 46°42' W 086°06'2512.7 330 / 241010.5 6.5 7.8
2014-Oct-20 20:00N 46°48' W 085°30'2512.7 320 / 141009.5 7.4 7.6
2014-Oct-20 18:00N 46°42' W 084°54'1010.2 300 / 201007.5 8.1 8.8
2014-Oct-20 17:00N 46°36' W 084°42'18 5.9 300 / 221006.8 8.7 9.4
2014-Oct-20 14:00N 46°30' W 084°18'20 9.9 290 / 41007.2 8.0 9.0
2014-Oct-20 12:00N 46°12' W 084°06'17 9.2 220 / 41006.6 9.1 8.8
2014-Oct-20 10:07N 45°57' W 083°53'325.0
2014-Oct-20 10:00N 45°54' W 083°54'1514.6 220 / 121006.6 9.5 9.0
2014-Oct-20 09:00N 45°42' W 083°42'4912.3 210 / 151006.9 9.5 9.3
2014-Oct-20 05:00N 45°00' W 083°06'2512.7 220 / 191010.3 9.2 9.7
2014-Oct-20 03:00N 44°36' W 082°54'1312.7 220 / 231012.3 10.3 9.1
2014-Oct-20 02:00N 44°24' W 082°48'1312.7 200 / 171013.7 9.6 9.9
2014-Oct-20 01:00N 44°12' W 082°42'1312.8 190 / 181014.0 9.4 10.4
2014-Oct-20 00:00N 44°00' W 082°36'2412.2 200 / 151015.0 9.3 10.4
2014-Oct-19 22:00N 43°36' W 082°30'1212.0 240 / 121016.7 9.2 10.6
2014-Oct-19 21:00N 43°24' W 082°30'1918.5 230 / 141017.4 9.5 10.7
2014-Oct-19 20:00N 43°06' W 082°24'6 6.0 250 / 91018.1 9.5 11.8
2014-Oct-19 19:00N 43°00' W 082°24'19 9.3 240 / 71019.1 9.2 11.7
2014-Oct-19 17:00N 42°42' W 082°30'7 7.4 260 / 91020.8 7.7 11.7
2014-Oct-19 16:00N 42°36' W 082°36'1110.7 270 / 111021.6 6.1 11.7
2014-Oct-19 15:00N 42°30' W 082°48'1312.8 320 / 101021.6 4.9 12.1
2014-Oct-19 14:00N 42°18' W 082°54'9 3.0 310 / 61021.9 3.8 11.7
2014-Oct-19 11:00N 42°18' W 083°06'18 9.0 300 / 51021.6 1.6 12.2
2014-Oct-19 09:00N 42°00' W 083°06'11 5.4 310 / 161020.1 3.9 12.3
2014-Oct-19 07:00N 41°54' W 083°18'0 0.0 310 / 141020.1 4.7 12.9
2014-Oct-19 05:00N 41°54' W 083°18'0 0.0 290 / 71019.8 6.9 12.5
2014-Oct-19 02:00N 41°54' W 083°18'0 0.0 310 / 81019.1 8.2 13.3
2014-Oct-19 01:00N 41°54' W 083°18'4 4.5 300 / 81018.8 8.7 12.9
2014-Oct-19 00:00N 41°54' W 083°12'0 0.0 320 / 171017.1 9.1 12.3
2014-Oct-18 23:00N 41°54' W 083°12'0 0.0 340 / 161016.4 9.0 12.7
2014-Oct-18 22:00N 41°54' W 083°12'0 0.0 310 / 181016.1 9.0 12.7
2014-Oct-18 19:00N 41°54' W 083°12'4 4.5 310 / 191014.4 8.6 12.7
2014-Oct-18 18:00N 41°54' W 083°06'4 4.5 330 / 181013.4 9.0 12.8
2014-Oct-18 17:00N 41°54' W 083°12'7 7.5 320 / 211012.7 8.9 12.7
2014-Oct-18 16:00N 42°00' W 083°06'18 9.0 330 / 121012.7 9.0 12.8
2014-Oct-18 14:00N 42°18' W 083°06'2110.7 300 / 91010.8 7.7 12.9
2014-Oct-18 12:00N 42°30' W 082°42'1110.7 310 / 221008.1 7.8 12.5
2014-Oct-18 11:00N 42°36' W 082°30'19 9.3 300 / 121007.2 6.9 12.8
2014-Oct-18 09:00N 42°54' W 082°24'1212.0 280 / 101004.9 6.8 12.5
2014-Oct-18 08:00N 43°06' W 082°24'1212.0 290 / 221003.5 8.4 12.4
2014-Oct-18 07:00N 43°18' W 082°24'1212.0 300 / 251003.2 8.4 12.3
2014-Oct-18 06:00N 43°30' W 082°24'1312.8 290 / 231002.5 8.6 11.8
2014-Oct-18 05:00N 43°42' W 082°30'1212.0 300 / 241001.8 9.0 11.8
2014-Oct-18 04:00N 43°54' W 082°30'8213.7 300 / 261000.8 9.7 11.5
2014-Oct-17 22:00N 45°12' W 083°06'1414.0 300 / 15997.1 10.8 10.4
2014-Oct-17 21:00N 45°18' W 083°24'0 0.0 300 / 14996.7 10.9 10.5
2014-Oct-17 20:00N 45°18' W 083°24'0 0.0 320 / 11995.7 10.8 10.9
2014-Oct-17 16:00N 45°18' W 083°24'0 0.0 220 / 2996.7 13.1 10.9
2014-Oct-17 15:00N 45°18' W 083°24'0 0.0 210 / 4997.1 12.2 10.9
2014-Oct-17 13:00N 45°18' W 083°24'0 0.0 230 / 7997.4 11.2 10.8
2014-Oct-17 11:00N 45°18' W 083°24'10 5.2 210 / 8998.4 10.4 10.6
2014-Oct-17 09:00N 45°12' W 083°12'7 7.3 250 / 22998.8 11.1 10.5
2014-Oct-17 08:00N 45°06' W 083°06'18 9.2 240 / 12999.4 11.3 10.6
2014-Oct-17 06:00N 44°48' W 083°00'7 7.4 240 / 91001.5 11.1 10.2
2014-Oct-17 05:00N 44°42' W 082°54'1312.7 260 / 71002.2 11.2 10.2
2014-Oct-17 04:00N 44°30' W 082°48'19 9.3 220 / 101002.5 11.6 10.4
2014-Oct-17 02:00N 44°12' W 082°42'7 7.4 200 / 121003.9 11.9 11.1
2014-Oct-17 01:00N 44°06' W 082°36'1212.0 220 / 131004.2 11.9 11.4
2014-Oct-17 00:00N 43°54' W 082°36'13 6.4 240 / 31004.5 11.7 11.9
2014-Oct-16 22:00N 43°42' W 082°30'2010.0 350 / 131004.9 12.3 12.5
2014-Oct-16 20:00N 43°24' W 082°18'2412.2 350 / 161004.5 12.2 12.6
2014-Oct-16 18:00N 43°00' W 082°24'50 9.9 010 / 71005.5 14.3 13.2
2014-Oct-16 13:00N 42°18' W 083°00'4 4.4 360 / 101006.7 12.9 13.1
2014-Oct-16 12:00N 42°18' W 083°06'4 4.4 310 / 21007.4 13.1 15.4
2014-Oct-16 11:00N 42°18' W 083°12'0 0.0 310 / 81007.4 13.4 17.0
2014-Oct-16 08:00N 42°18' W 083°12'0 0.0 350 / 21007.0 14.5 16.5
2014-Oct-16 07:00N 42°18' W 083°12'0 0.0 290 / 31007.7 14.3 15.9
2014-Oct-16 06:00N 42°18' W 083°12'   100 / 21008.1 14.8 17.3

Dump ship's entire track history